Change the Weather History Date:

Wednesday, November 13, 2013

  Actual Average (KORF) Record (KORF)
Temperature  
Mean Temperature 35 °F 54 °F  
Max Temperature 44 °F 62 °F 80 °F (1945)
Min Temperature 26 °F 45 °F 27 °F (1934)
Degree Days  
Heating Degree Days 30 12  
Month to date heating degree days 130  
Since 1 July heating degree days 287  
Cooling Degree Days 0 0  
Month to date cooling degree days 1  
Year to date cooling degree days 1621  
Moisture  
Dew Point 20 °F    
Average Humidity 55    
Maximum Humidity 93    
Minimum Humidity 36    
Precipitation  
Precipitation 0.00 in 0.09 in 1.90 in (1940)
Month to date precipitation 1.40  
Year to date precipitation 41.52  
Snow  
Snow 0.00 in 0.00 in 0.00 in (2002)
Month to date snowfall 0.0  
Since 1 July snowfall 0.0  
Snow Depth -    
Sea Level Pressure  
Sea Level Pressure 30.44 in    
Wind  
Wind Speed 9 mph (NNW)    
Max Wind Speed 18 mph    
Max Gust Speed 29 mph    
Visibility 10 miles    
Events      
T = Trace of Precipitation, MM = Missing Value Source: NWS Daily Summary

Daily Weather History Graph

Daily Weather History Graph

Search for Another Location

Airport or City:

Trip Planner

Search our weather history database for the weather conditions in past years. The results will help you decide how hot, cold, wet, or windy it might be!

Date:

Astronomy

Nov. 13, 2013 Rise Set
Actual Time 6:41 AM EST 4:57 PM EST
Civil Twilight 6:13 AM EST 5:24 PM EST
Nautical Twilight 5:42 AM EST 5:56 PM EST
Astronomical Twilight 5:12 AM EST 6:26 PM EST
Moon 2:38 PM EST (11/13) 2:38 AM EST (11/13)
Length of Visible Light 11h 11m
Length of Day
10h 16m
Waxing Gibbous, 84% of the Moon is Illuminated
Nov 13
Waxing Gibbous
Nov 17
Full
Nov 25
Last Quarter
Dec 2
New
Dec 9
First Quarter

Hourly Weather History & Observations

Time (EST) Temp. Windchill Dew Point Humidity Pressure Visibility Wind Dir Wind Speed Gust Speed Precip Events Conditions
12:15 AM 39.2 °F 34.2 °F 15.8 °F 39% 30.36 in 10.0 mi NNW 6.9 mph 20.7 mph N/A   Overcast
12:35 AM 39.2 °F 34.2 °F 15.8 °F 39% 30.36 in 10.0 mi NNW 6.9 mph 18.4 mph N/A   Scattered Clouds
12:55 AM 39.2 °F 32.5 °F 15.8 °F 39% 30.37 in 10.0 mi NNW 10.4 mph 23.0 mph N/A   Clear
1:15 AM 39.2 °F 32.5 °F 15.8 °F 39% 30.37 in 10.0 mi NNW 10.4 mph 19.6 mph N/A   Scattered Clouds
1:35 AM 37.4 °F 30.3 °F 15.8 °F 41% 30.37 in 10.0 mi NNW 10.4 mph 20.7 mph N/A   Clear
1:55 AM 37.4 °F 29.8 °F 14.0 °F 38% 30.38 in 10.0 mi NNW 11.5 mph 18.4 mph N/A   Clear
2:15 AM 37.4 °F 30.3 °F 15.8 °F 41% 30.38 in 10.0 mi NNW 10.4 mph - N/A   Clear
2:35 AM 37.4 °F 29.3 °F 15.8 °F 41% 30.38 in 10.0 mi NNW 12.7 mph 19.6 mph N/A   Clear
2:55 AM 37.4 °F 29.8 °F 17.6 °F 45% 30.37 in 10.0 mi NNW 11.5 mph 19.6 mph N/A   Clear
3:15 AM 37.4 °F 30.3 °F 19.4 °F 48% 30.38 in 10.0 mi NNW 10.4 mph 20.7 mph N/A   Clear
3:35 AM 37.4 °F 30.3 °F 19.4 °F 48% 30.38 in 10.0 mi NNW 10.4 mph 19.6 mph N/A   Clear
3:55 AM 35.6 °F 28.6 °F 21.2 °F 56% 30.38 in 10.0 mi NW 9.2 mph - N/A   Clear
4:15 AM 35.6 °F 27.1 °F 21.2 °F 56% 30.39 in 10.0 mi NNW 12.7 mph 16.1 mph N/A   Clear
4:35 AM 35.6 °F 28.6 °F 21.2 °F 56% 30.39 in 10.0 mi NW 9.2 mph 17.3 mph N/A   Clear
4:55 AM 35.6 °F 28.0 °F 21.2 °F 56% 30.39 in 10.0 mi NNW 10.4 mph - N/A   Clear
5:15 AM 35.6 °F 27.1 °F 21.2 °F 56% 30.40 in 10.0 mi NNW 12.7 mph 18.4 mph N/A   Clear
5:35 AM 35.6 °F 28.0 °F 21.2 °F 56% 30.41 in 10.0 mi NNW 10.4 mph 16.1 mph N/A   Clear
5:55 AM 35.6 °F 28.6 °F 21.2 °F 56% 30.41 in 10.0 mi NW 9.2 mph 18.4 mph N/A   Clear
6:15 AM 35.6 °F 27.1 °F 21.2 °F 56% 30.42 in 10.0 mi NNW 12.7 mph 18.4 mph N/A   Clear
6:35 AM 35.6 °F 28.6 °F 21.2 °F 56% 30.42 in 10.0 mi NNW 9.2 mph - N/A   Clear
6:55 AM 35.6 °F 29.2 °F 21.2 °F 56% 30.43 in 10.0 mi NNW 8.1 mph - N/A   Clear
7:15 AM 35.6 °F 28.6 °F 21.2 °F 56% 30.44 in 10.0 mi NW 9.2 mph 17.3 mph N/A   Clear
7:35 AM 35.6 °F 28.0 °F 21.2 °F 56% 30.44 in 10.0 mi NNW 10.4 mph 16.1 mph N/A   Clear
7:55 AM 35.6 °F 26.2 °F 21.2 °F 56% 30.44 in 10.0 mi NNW 15.0 mph 23.0 mph N/A   Clear
8:15 AM 37.4 °F 28.9 °F 21.2 °F 52% 30.45 in 10.0 mi NNW 13.8 mph 21.9 mph N/A   Clear
8:35 AM 37.4 °F 28.2 °F 19.4 °F 48% 30.45 in 10.0 mi NNW 16.1 mph 27.6 mph N/A   Clear
8:55 AM 37.4 °F 29.3 °F 19.4 °F 48% 30.46 in 10.0 mi NNW 12.7 mph 24.2 mph N/A   Clear
9:15 AM 39.2 °F 30.5 °F 19.4 °F 45% 30.46 in 10.0 mi NNW 16.1 mph 25.3 mph N/A   Clear
9:35 AM 39.2 °F 29.8 °F 19.4 °F 45% 30.46 in 10.0 mi NW 18.4 mph 28.8 mph N/A   Clear
9:55 AM 39.2 °F 30.8 °F 19.4 °F 45% 30.47 in 10.0 mi North 15.0 mph 21.9 mph N/A   Clear
10:15 AM 41.0 °F 33.5 °F 17.6 °F 39% 30.47 in 10.0 mi NNW 13.8 mph 26.5 mph N/A   Clear
10:35 AM 39.2 °F 32.5 °F 17.6 °F 42% 30.47 in 10.0 mi NNW 10.4 mph 27.6 mph N/A   Scattered Clouds
10:55 AM 41.0 °F 34.7 °F 17.6 °F 39% 30.47 in 10.0 mi NNW 10.4 mph 25.3 mph N/A   Scattered Clouds
11:15 AM 41.0 °F 34.3 °F 17.6 °F 39% 30.47 in 10.0 mi NNW 11.5 mph 23.0 mph N/A   Scattered Clouds
11:35 AM 41.0 °F 33.5 °F 17.6 °F 39% 30.46 in 10.0 mi North 13.8 mph 23.0 mph N/A   Clear
11:55 AM 41.0 °F 34.7 °F 19.4 °F 42% 30.45 in 10.0 mi NNW 10.4 mph 24.2 mph N/A   Scattered Clouds
12:15 PM 42.8 °F 34.8 °F 17.6 °F 36% 30.44 in 10.0 mi NW 17.3 mph 20.7 mph N/A   Scattered Clouds
12:35 PM 42.8 °F 36.2 °F 19.4 °F 39% 30.44 in 10.0 mi NNW 12.7 mph 20.7 mph N/A   Scattered Clouds
12:55 PM 42.8 °F 35.4 °F 19.4 °F 39% 30.44 in 10.0 mi NNW 15.0 mph 23.0 mph N/A   Clear
1:15 PM 42.8 °F 36.6 °F 17.6 °F 36% 30.43 in 10.0 mi NNW 11.5 mph 18.4 mph N/A   Clear
1:35 PM 42.8 °F 35.4 °F 19.4 °F 39% 30.43 in 10.0 mi NW 15.0 mph 19.6 mph N/A   Clear
1:55 PM 42.8 °F 35.8 °F 17.6 °F 36% 30.43 in 10.0 mi NNW 13.8 mph 26.5 mph N/A   Clear
2:15 PM 42.8 °F 36.2 °F 19.4 °F 39% 30.43 in 10.0 mi NNW 12.7 mph 19.6 mph N/A   Clear
2:35 PM 44.6 °F 37.8 °F 19.4 °F 37% 30.43 in 10.0 mi NW 15.0 mph 19.6 mph N/A   Clear
2:55 PM 42.8 °F 37.5 °F 17.6 °F 36% 30.43 in 10.0 mi NNW 9.2 mph 18.4 mph N/A   Clear
3:15 PM 42.8 °F 37.0 °F 17.6 °F 36% 30.43 in 10.0 mi NNW 10.4 mph - N/A   Clear
3:35 PM 42.8 °F 37.5 °F 17.6 °F 36% 30.43 in 10.0 mi NNW 9.2 mph - N/A   Clear
3:55 PM 42.8 °F 37.5 °F 17.6 °F 36% 30.44 in 10.0 mi NNW 9.2 mph - N/A   Clear
4:15 PM 42.8 °F 38.0 °F 17.6 °F 36% 30.45 in 10.0 mi NNW 8.1 mph - N/A   Clear
4:35 PM 42.8 °F 39.3 °F 19.4 °F 39% 30.45 in 10.0 mi NNW 5.8 mph - N/A   Clear
4:55 PM 41.0 °F - 19.4 °F 42% 30.46 in 10.0 mi Calm Calm - N/A   Clear
5:15 PM 39.2 °F - 21.2 °F 49% 30.46 in 10.0 mi Calm Calm - N/A   Clear
5:35 PM 37.4 °F - 21.2 °F 52% 30.47 in 10.0 mi Calm Calm - N/A   Clear
5:55 PM 35.6 °F - 21.2 °F 56% 30.47 in 10.0 mi Calm Calm - N/A   Clear
6:15 PM 33.8 °F - 24.8 °F 70% 30.47 in 10.0 mi Calm Calm - N/A   Clear
6:35 PM 33.8 °F - 26.6 °F 75% 30.47 in 10.0 mi Calm Calm - N/A   Clear
6:55 PM 32.0 °F 28.7 °F 24.8 °F 75% 30.47 in 10.0 mi NE 3.5 mph - N/A   Clear
7:15 PM 30.2 °F - 24.8 °F 80% 30.47 in 10.0 mi Calm Calm - N/A   Clear
7:35 PM 30.2 °F - 24.8 °F 80% 30.47 in 10.0 mi Calm Calm - N/A   Clear
7:55 PM 28.4 °F - 24.8 °F 86% 30.47 in 10.0 mi Calm Calm - N/A   Clear
8:15 PM 30.2 °F - 23.0 °F 75% 30.48 in 10.0 mi Calm Calm - N/A   Clear
8:35 PM 28.4 °F - 24.8 °F 86% 30.48 in 10.0 mi Calm Calm - N/A   Clear
8:55 PM 26.6 °F - 24.8 °F 93% 30.47 in 10.0 mi Calm Calm - N/A   Clear
9:15 PM 28.4 °F - 24.8 °F 86% 30.47 in 10.0 mi Calm Calm - N/A   Clear
9:35 PM 26.6 °F - 24.8 °F 93% 30.47 in 10.0 mi Calm Calm - N/A   Clear
9:55 PM 28.4 °F - 23.0 °F 80% 30.48 in 10.0 mi Calm Calm - N/A   Clear
10:15 PM 26.6 °F - 23.0 °F 86% 30.48 in 10.0 mi Calm Calm - N/A   Clear
10:35 PM 26.6 °F - 23.0 °F 86% 30.47 in 10.0 mi Calm Calm - N/A   Clear
10:55 PM 26.6 °F - 24.8 °F 93% 30.46 in 10.0 mi Calm Calm - N/A   Clear
11:15 PM 26.6 °F - 24.8 °F 93% 30.46 in 10.0 mi Calm Calm - N/A   Clear
11:35 PM 26.6 °F - 24.8 °F 93% 30.46 in 10.0 mi Calm Calm - N/A   Clear
11:55 PM 26.6 °F - 24.8 °F 93% 30.46 in 10.0 mi Calm Calm - N/A   Clear